Dewpoint
48 48 48 48 48 49 49 48 48 48 48 48 48 49 48 49 49 50 49 49 49 49 49 49 49 49 49 50 48 49 50 42 40 38 35 41 51 53 52 52 51 51 52 37 28 30 30 30 28 28 30 29 24 18 16 16 16 16 14 13 12 12 11 11 11 11 12 10 10 11 10 10 9 11 12 13 11 8 11 10 10 15 16 31 54 59 60 61
47 47 48 48 48 48 49 48 48 49 49 49 49 49 50 49 49 49 49 49 49 49 49 48 49 49 49 49 50 50 47 42 39 37 35 50 52 52 51 49 50 50 48 35 32 31 29 26 27 26 26 25 21 16 15 12 14 14 14 14 12 12 12 12 11 11 11 10 11 10 10 10 9 11 11 10 10 13 13 9 8 14 15 37 53 59 60 61
48 48 48 48 48 48 48 49 49 49 49 49 48 48 49 49 49 50 50 50 49 49 49 49 49 49 49 49 50 51 45 40 37 33 47 50 51 49 48 46 48 49 41 36 34 30 31 33 28 24 24 22 17 14 14 11 12 12 14 12 11 11 12 12 12 11 10 10 11 10 10 9 10 10 11 9 11 13 9 7 9 9 12 16 50 57 59 61
48 48 49 48 48 49 49 49 49 49 49 49 48 49 49 49 50 50 50 50 50 49 49 49 49 48 48 49 51 46 42 38 33 43 45 50 49 47 45 47 46 46 34 32 32 31 33 33 34 35 27 22 17 13 12 11 10 10 11 10 9 11 13 11 10 11 10 11 11 10 9 10 10 9 10 10 9 11 12 8 9 8 7 10 51 52 58 61
48 48 48 49 48 49 49 49 49 48 48 48 49 49 50 49 50 50 50 49 49 49 49 49 49 48 48 49 50 43 39 34 40 44 46 50 48 46 45 46 48 38 34 30 30 28 25 31 33 32 33 28 20 12 10 11 10 8 8 9 10 12 13 10 10 10 9 11 10 9 7 10 10 9 9 10 8 11 12 11 8 18 40 7 39 57 60 60
49 48 48 48 48 49 49 49 49 48 48 48 49 49 50 50 49 49 49 49 49 50 49 49 49 49 48 50 45 41 37 21 23 41 50 50 47 46 46 47 48 43 37 34 28 27 28 27 30 30 30 31 25 13 9 9 9 8 8 9 11 12 11 9 11 11 10 10 9 7 11 11 9 9 8 9 7 8 12 12 8 7 13 27 51 57 60 62
49 49 49 49 49 49 49 48 49 49 48 49 49 50 49 49 50 49 49 49 50 49 49 49 49 48 48 49 40 37 35 32 30 47 53 50 49 47 45 45 45 32 34 28 23 24 27 29 29 28 28 27 25 19 11 8 8 7 7 8 7 7 9 9 11 10 10 10 8 8 11 7 6 7 8 7 9 9 11 11 10 7 47 50 51 55 59 61
49 50 49 49 50 50 50 49 49 49 49 49 49 49 49 49 49 49 49 49 49 49 48 49 49 49 48 41 38 33 30 25 43 46 52 52 47 44 45 34 25 22 24 21 20 24 29 29 29 29 27 26 23 19 14 10 6 6 6 7 6 6 10 12 13 10 10 7 6 8 10 9 8 7 8 5 6 7 9 10 10 8 45 39 44 45 56 64
49 50 49 49 50 50 50 49 49 49 48 49 49 49 48 49 49 49 49 49 49 49 49 48 48 48 48 42 37 32 26 26 37 36 42 41 31 23 23 20 20 21 23 22 19 22 24 27 29 30 27 26 27 19 13 9 7 6 5 6 5 4 7 11 12 11 9 7 7 7 7 7 8 8 7 8 8 8 8 5 9 9 8 7 40 51 60 64
49 49 49 49 50 50 49 49 49 49 49 49 49 48 49 49 49 49 49 49 49 48 48 48 47 47 44 37 35 31 27 28 26 26 26 24 22 22 23 22 19 19 22 22 21 19 19 20 25 28 28 27 26 21 17 9 6 6 5 4 4 4 7 9 9 10 9 7 7 7 5 2 -0 1 5 8 7 7 10 7 3 9 15 9 11 58 61 64
46 47 48 49 49 49 49 49 49 48 48 49 49 49 48 48 49 49 49 49 48 48 48 47 46 46 39 37 33 27 28 28 26 23 26 26 23 20 18 19 20 21 21 20 18 18 20 23 25 26 27 26 25 23 20 14 10 5 4 2 3 8 7 6 8 8 7 7 8 7 6 5 6 7 6 7 2 1 9 8 7 7 15 21 47 56 62 65
45 45 45 46 46 47 47 48 48 48 48 48 48 48 47 47 48 48 48 49 48 47 46 46 46 42 39 37 33 29 26 26 28 28 26 24 24 24 25 24 22 21 21 19 18 19 19 19 24 26 25 25 23 22 20 18 13 9 5 2 3 5 5 5 7 7 8 8 6 6 4 4 4 6 7 8 -2 10 10 9 10 3 10 8 27 56 63 64
47 47 46 47 47 46 46 47 48 47 46 48 47 48 47 47 47 48 48 49 48 46 47 47 46 40 39 35 32 34 33 32 30 29 29 29 29 29 28 26 23 20 20 20 19 19 19 20 23 23 25 26 25 20 20 18 17 14 10 4 2 1 2 7 8 6 6 2 2 5 5 5 3 4 7 3 6 11 9 7 8 21 23 13 30 36 62 65
47 47 46 47 47 48 48 48 47 47 47 47 47 47 47 47 49 49 49 49 49 47 47 48 46 40 37 32 31 31 30 30 29 29 29 30 28 24 23 21 21 20 18 18 18 17 19 20 22 25 26 25 25 28 27 26 18 14 12 7 3 1 1 6 8 5 6 3 7 10 5 0 1 3 8 11 10 8 9 9 15 29 28 33 37 41 62 66
47 47 47 48 48 48 48 48 48 48 48 47 47 48 48 48 49 49 50 50 49 48 48 48 40 38 35 32 32 31 47 33 30 29 29 28 27 26 25 23 19 18 18 17 17 17 18 19 20 22 23 25 26 26 26 26 20 14 12 10 5 1 2 0 3 3 5 5 2 1 1 1 5 8 9 13 23 20 10 7 15 25 32 41 39 39 61 63
47 47 47 47 47 47 47 48 48 48 48 48 48 48 48 49 48 49 49 50 50 49 45 42 38 36 32 30 28 36 30 29 30 30 30 27 24 22 21 21 20 17 16 16 17 16 19 18 16 19 23 23 23 24 25 25 23 16 12 11 7 4 2 -2 6 5 6 7 -1 6 5 6 6 6 6 29 30 28 15 15 22 29 42 43 38 37 44 61
47 47 48 48 48 48 47 48 47 48 48 49 49 48 48 48 49 48 48 49 47 47 41 37 36 37 31 28 28 25 25 28 28 26 24 25 22 20 20 19 17 17 16 16 16 17 18 17 16 18 21 22 21 22 23 23 21 16 12 11 8 4 1 1 5 6 8 6 -3 10 8 5 2 3 5 19 22 32 15 17 25 32 29 40 38 35 42 59
47 47 47 48 47 47 48 47 47 48 48 48 48 48 46 48 49 49 47 48 41 37 36 36 32 33 28 29 27 27 23 22 23 23 21 21 23 22 20 19 17 15 16 16 17 16 18 15 14 15 18 20 21 20 22 19 19 15 12 12 8 6 3 3 2 3 6 -7 6 11 9 5 1 2 -0 2 14 24 17 21 19 25 28 37 39 39 43 57
47 47 47 47 47 47 46 47 47 48 48 48 48 48 48 49 45 43 40 39 39 34 31 32 32 27 20 23 25 28 27 25 24 21 20 20 20 20 20 19 18 17 15 15 16 17 17 14 13 16 17 17 18 20 18 19 17 16 13 10 8 8 5 3 3 1 -2 3 10 10 7 1 0 3 2 5 4 6 10 18 29 30 29 37 42 41 43 45
47 47 47 47 46 47 47 46 48 49 48 46 42 41 42 38 39 38 37 37 32 29 27 26 28 29 28 27 27 26 27 24 22 21 17 20 22 18 19 19 18 16 14 13 11 14 16 12 10 13 15 15 15 18 19 18 18 17 16 11 7 6 4 2 5 2 -1 5 9 10 7 0 2 5 5 3 7 7 9 16 30 31 37 38 41 44 43 47
46 46 46 46 46 47 48 47 48 48 47 44 42 40 34 28 25 24 27 27 27 27 26 24 23 23 23 24 22 23 23 23 22 21 20 22 20 17 16 17 16 15 13 12 11 10 14 12 9 9 13 15 15 17 19 18 16 16 15 10 5 5 3 5 6 3 -4 7 7 9 5 3 3 5 5 6 7 4 8 17 28 30 32 36 38 43 43 52
46 46 47 47 47 47 48 48 48 47 48 44 42 40 36 31 29 29 29 26 28 28 28 27 26 26 25 24 25 25 24 21 21 22 22 22 19 14 14 15 16 14 15 14 14 12 9 10 9 8 11 16 16 17 17 16 14 15 16 11 7 7 7 5 2 -1 -4 -3 3 5 5 5 5 4 4 8 6 8 10 15 25 26 27 35 39 40 45 52
45 46 47 47 48 48 48 48 47 48 45 43 41 38 33 33 32 33 34 30 29 30 29 29 28 28 27 27 25 25 23 21 20 21 22 21 17 14 13 11 11 9 10 12 11 12 10 7 7 8 10 15 15 15 17 16 16 15 15 15 7 8 8 6 3 -2 -3 -3 -1 6 6 8 10 10 9 8 6 12 23 36 34 27 26 31 36 38 44 51
46 45 47 47 47 47 47 47 47 45 43 42 41 39 36 34 32 33 35 32 29 30 29 29 28 28 28 23 26 22 21 19 19 18 21 20 17 16 13 11 11 10 9 8 9 6 4 7 7 7 8 14 15 16 17 15 15 15 15 14 12 6 5 5 2 -1 -5 -4 -6 4 10 9 9 8 4 8 13 18 26 38 34 34 35 31 36 38 46 50
46 46 47 47 47 46 46 47 43 42 39 38 35 36 35 36 37 38 35 31 28 29 30 27 24 20 21 24 24 22 21 21 20 20 21 19 17 16 14 14 11 8 6 6 8 9 7 7 9 9 7 12 15 16 17 16 13 12 13 13 12 7 5 6 2 -3 -2 0 -5 4 8 9 11 8 4 5 9 12 16 26 23 27 35 36 34 36 45 56
46 46 46 46 46 45 47 43 42 39 37 37 36 35 37 37 39 41 36 30 24 23 26 24 23 21 26 23 21 21 22 20 21 22 22 20 22 18 16 13 11 8 8 6 2 8 9 9 10 12 11 12 16 16 17 15 14 13 12 14 14 12 7 5 2 -2 -2 -0 -4 4 8 10 9 7 8 8 8 10 14 24 23 30 34 35 36 38 44 60
45 45 45 45 46 46 43 39 39 38 37 36 37 38 37 40 43 40 33 27 24 26 20 30 24 22 25 22 23 24 20 19 20 21 20 22 18 18 15 13 11 10 6 8 9 7 13 13 10 12 13 12 15 16 16 16 14 12 15 15 14 13 8 3 3 1 -4 3 -1 4 7 8 4 5 8 6 9 9 10 11 23 30 35 34 33 36 45 57
45 45 45 45 46 46 43 43 41 39 36 38 37 37 38 40 42 39 33 21 16 28 24 26 29 28 25 24 23 21 21 23 20 19 20 19 18 16 14 12 9 6 5 7 11 14 15 15 11 12 15 14 15 17 16 14 12 12 13 11 11 12 11 6 2 2 -2 -0 2 5 7 8 6 6 6 6 6 9 9 10 18 25 32 35 35 37 50 55
44 45 45 45 47 47 47 44 41 37 39 38 40 38 42 42 39 33 25 17 29 24 32 32 46 32 29 29 28 27 25 25 22 25 21 19 17 15 13 13 11 7 3 4 8 15 17 17 13 12 17 15 16 18 17 16 13 14 16 17 15 12 3 6 5 0 -0 4 9 5 5 6 3 4 5 8 6 9 11 11 15 24 31 32 34 40 47 54
44 45 45 46 46 46 46 46 43 41 40 41 40 41 41 41 36 29 23 18 33 23 33 31 29 28 26 25 25 26 25 26 25 25 26 20 16 15 12 12 10 7 5 5 7 13 19 24 20 10 16 19 16 17 18 14 13 11 12 10 6 4 11 13 15 6 5 9 7 2 1 2 3 2 5 11 12 10 12 13 16 23 30 32 36 41 42 50
44 44 45 47 44 41 41 42 43 42 42 43 41 41 41 38 30 23 19 24 30 30 32 33 29 31 29 24 24 29 27 27 27 31 24 19 16 15 12 9 10 8 10 11 15 14 13 17 24 14 18 21 20 15 17 15 14 13 10 9 8 11 13 17 13 5 6 6 3 1 1 2 3 2 1 13 12 9 12 13 15 21 29 32 38 40 41 52
44 45 46 46 44 46 42 38 41 41 42 43 43 42 37 28 30 23 19 32 25 28 29 30 33 32 29 29 29 25 25 23 27 28 24 17 17 14 12 9 11 11 11 14 15 20 20 19 27 19 24 22 20 19 15 14 13 11 12 11 12 13 13 10 7 10 7 3 2 -0 0 -0 1 7 5 3 9 10 11 8 12 19 29 36 37 41 41 51
44 46 47 46 45 46 44 43 43 44 44 43 41 40 32 26 21 21 23 26 23 31 30 35 33 32 30 30 29 26 23 22 23 23 24 21 14 13 12 8 12 11 11 15 17 20 18 18 20 21 23 25 24 23 20 13 11 9 10 12 11 10 9 13 7 8 8 2 -1 -0 1 -0 4 3 5 5 11 11 12 19 17 22 35 38 38 41 42 49
45 46 45 46 45 44 43 45 43 43 43 44 39 35 31 25 23 28 26 25 28 36 34 33 33 32 31 29 27 24 21 23 23 22 20 17 15 16 9 5 8 12 13 21 23 19 17 19 22 23 23 25 23 22 15 13 12 11 12 10 12 10 9 13 4 7 6 1 -0 -1 -0 5 1 6 7 11 10 12 11 11 23 31 35 40 37 38 42 45
45 47 47 47 47 46 45 42 46 44 45 42 37 31 25 24 26 25 26 29 31 34 32 34 32 30 28 27 27 27 22 21 22 21 18 15 17 13 13 7 6 10 16 22 22 23 17 17 20 24 25 25 24 23 23 25 14 12 12 11 10 11 11 7 9 6 7 6 7 6 10 6 8 11 13 11 8 8 15 14 23 33 37 37 38 41 42 46
45 47 47 45 46 47 43 43 45 44 43 40 33 28 25 27 25 29 29 34 35 31 32 33 30 29 26 24 26 25 24 22 23 21 18 14 15 12 10 11 9 10 17 22 26 22 19 18 18 22 25 24 25 26 23 22 17 12 11 11 10 10 7 15 19 18 23 13 9 11 9 8 8 13 10 10 9 6 11 11 17 30 35 39 41 43 44 46
44 44 42 42 40 40 42 43 43 44 43 38 30 27 28 30 30 32 34 33 34 34 31 27 27 24 20 19 22 23 23 21 21 19 18 18 13 12 10 12 13 12 15 23 24 23 20 18 18 20 22 23 23 25 21 20 20 13 12 11 12 11 9 15 9 14 13 9 13 7 3 3 1 10 19 10 10 19 20 21 22 32 35 38 43 45 45 49
44 44 43 39 36 40 41 44 43 43 42 36 30 31 31 30 34 33 35 38 37 34 30 28 27 26 20 18 22 19 21 17 19 21 14 13 12 11 9 9 13 16 16 19 25 28 24 20 19 17 19 21 23 25 21 21 22 13 10 11 9 16 11 11 16 14 11 12 8 4 1 2 0 12 16 14 12 26 28 25 24 27 33 37 42 42 48 51
43 42 40 41 37 40 41 42 43 41 39 33 30 30 31 31 33 34 36 39 37 32 30 30 28 29 24 22 22 20 15 16 16 14 14 13 12 14 10 10 13 14 18 23 25 27 25 23 17 17 17 27 26 21 19 19 18 12 11 9 10 12 14 11 16 11 10 9 13 4 2 8 6 12 16 14 15 24 25 27 26 24 29 38 41 43 47 53
42 42 40 42 37 42 42 43 41 43 36 31 30 30 31 32 32 35 34 38 35 32 31 31 33 31 30 26 28 19 17 14 10 11 15 14 10 17 14 11 13 14 18 20 22 25 26 29 20 15 16 19 17 22 18 19 16 10 7 9 8 18 10 9 14 6 8 12 9 10 10 13 16 8 14 13 17 26 30 32 33 31 33 38 40 45 50 54
43 40 39 43 39 40 42 41 39 36 35 35 34 33 33 33 34 34 36 39 40 39 36 35 34 32 30 30 27 22 17 12 7 10 11 11 7 13 14 12 13 16 16 17 21 30 27 31 25 18 17 17 18 18 18 17 12 9 8 9 7 8 12 9 12 6 7 10 14 11 12 16 13 12 16 18 30 29 29 31 32 32 34 38 43 48 52 57
41 38 41 44 44 42 39 37 36 38 37 32 30 32 33 37 34 34 35 38 39 39 40 37 35 35 33 31 28 25 18 16 7 9 12 14 12 13 11 12 15 16 16 18 19 20 33 33 31 23 18 21 18 19 20 18 15 9 8 8 7 12 12 10 14 12 9 7 6 10 14 17 22 31 25 26 25 20 28 30 30 31 35 38 45 50 54 57
39 33 47 47 45 42 37 34 34 31 31 31 33 33 35 35 36 35 34 36 35 38 37 37 36 34 32 30 29 30 27 21 16 18 20 8 14 11 12 12 14 15 15 20 16 26 38 30 27 18 16 17 19 18 18 19 14 8 8 8 8 10 13 14 17 18 13 13 8 9 15 16 23 36 32 33 27 26 29 29 31 34 38 42 46 51 54 55
38 37 42 48 47 43 35 31 29 29 31 32 32 33 36 36 35 35 34 34 38 38 36 35 35 35 35 36 36 33 32 25 21 16 18 18 15 12 12 9 11 13 14 16 21 34 26 31 27 20 18 17 19 18 18 18 15 10 10 10 8 10 13 16 17 23 16 11 8 11 11 13 29 33 32 28 24 23 23 24 30 35 45 51 51 51 51 53
38 41 39 44 45 42 34 34 33 30 32 32 32 32 33 35 34 35 34 34 37 39 38 36 37 38 37 37 36 35 33 30 28 25 21 21 20 17 11 8 11 14 14 22 39 36 29 33 27 19 18 18 17 16 16 18 14 15 9 6 7 10 15 20 21 18 17 18 6 12 10 20 29 29 23 26 25 26 29 31 31 39 43 49 51 51 50 52
34 29 31 31 37 37 35 36 35 34 32 33 32 33 33 32 32 34 34 34 38 37 40 39 39 40 37 36 35 35 33 32 30 28 26 24 20 20 12 9 10 11 23 29 29 26 30 34 33 26 21 18 20 21 18 16 13 12 8 7 7 9 11 21 30 23 15 22 16 16 18 21 23 21 21 24 29 27 33 36 35 36 41 47 49 50 50 51
38 31 28 29 33 33 32 31 34 32 31 34 31 34 33 32 32 32 35 34 36 36 36 38 37 35 34 34 34 35 36 35 34 30 30 29 27 24 24 10 10 16 26 23 25 24 28 23 27 27 25 19 20 20 18 16 12 12 9 8 6 9 15 29 23 20 23 19 23 27 27 26 22 21 22 26 27 31 33 33 33 39 43 47 49 50 50 50
28 31 35 38 33 28 29 29 29 31 33 34 34 36 32 31 31 32 35 35 35 40 37 36 37 37 36 35 35 33 34 34 34 31 31 29 28 23 24 15 12 21 25 16 19 26 35 28 27 27 27 26 33 19 18 15 11 11 10 11 11 9 16 33 24 20 28 25 23 30 32 30 22 25 26 24 29 34 30 33 36 43 48 49 49 47 48 50
34 33 33 36 29 31 33 33 33 33 34 34 31 32 30 30 32 35 35 34 35 36 37 32 34 36 37 37 37 35 35 31 29 33 35 35 28 28 25 16 15 16 19 21 20 41 37 30 31 29 26 25 25 18 16 14 9 8 11 11 12 13 16 20 23 22 23 34 30 31 34 34 32 43 44 42 41 43 37 39 45 44 45 46 46 48 48 49
31 32 30 34 35 33 34 36 34 33 31 31 29 32 30 32 33 35 35 35 33 33 37 36 36 37 37 38 38 36 34 36 36 33 38 38 35 31 25 22 18 18 17 22 26 38 35 29 32 29 25 24 25 26 16 13 11 12 9 9 9 11 11 14 27 33 29 28 32 33 33 34 37 43 45 46 49 33 39 37 45 47 45 45 45 46 48 48
33 35 36 32 32 32 33 34 33 31 28 29 30 32 31 32 34 36 35 37 36 35 36 36 37 38 38 39 38 38 40 38 38 38 39 38 33 30 33 22 18 25 18 24 30 39 36 29 28 28 24 24 25 24 23 18 13 14 15 13 10 14 21 23 29 34 28 27 29 33 31 33 37 43 45 45 46 40 36 41 43 47 48 49 46 45 49 50
34 36 37 34 31 33 31 32 33 28 27 31 33 32 32 33 34 35 33 36 38 38 40 41 38 38 39 38 38 38 39 40 39 41 37 35 33 32 28 29 30 25 24 25 30 32 39 33 30 30 23 22 25 25 24 18 16 15 21 17 15 18 15 18 20 33 31 30 27 26 34 35 42 45 45 45 46 46 39 39 43 41 41 41 42 45 45 48